Regional Weather Roundup
Issued by NWS Sioux Falls, SD

Home | Current Version | Previous Version | Graphics & Text | Print | Product List | Glossary Off
Versions: 1 2 3 4 5 6 7 8 9 10 11 12 13 14 15 16 17 18 19 20 21 22 23 24 25 26 27 28 29 30 31 32 33 34 35 36 37 38 39 40 41 42 43 44 45 46 47 48 49 50

000
ASUS43 KFSD 221410
RWRFSD

WEATHER ROUNDUP FOR SE SOUTH DAKOTA/SW MINNESOTA/NW IOWA
NATIONAL WEATHER SERVICE SIOUX FALLS SD
900 AM CDT MON MAY 22 2017

NOTE: "FAIR" INDICATES FEW OR NO CLOUDS BELOW 12,000 FEET WITH NO
SIGNIFICANT WEATHER AND OR OBSTRUCTIONS TO VISIBILITY.


SDZ038>040-050-052>070-221500-
SOUTHEAST SOUTH DAKOTA

CITY           SKY/WX    TMP DP  RH WIND       PRES   REMARKS
BROOKINGS      SUNNY     52  45  77 CALM      29.88S
CHAMBERLAIN    CLOUDY    53  46  76 W15       29.95R
HURON          MOSUNNY   55  47  74 W10       29.88F
MADISON        FAIR      54  48  82 NW9       29.89R
MITCHELL       SUNNY     57  48  72 W12       29.90S
SIOUX FALLS    MOSUNNY   55  47  74 NW7       29.89S
WINNER         FAIR      54  44  69 NW17      29.97R
YANKTON        MOSUNNY   57  46  66 S10       29.92F
$$

MNZ071-072-080-081-089-090-097-098-221500-
SOUTHWEST MINNESOTA

CITY           SKY/WX    TMP DP  RH WIND       PRES   REMARKS
FAIRMONT       PTSUNNY   54  47  77 W10       29.89S
JACKSON        CLOUDY    54  45  71 W8        29.89S
LUVERNE        SUNNY     52  43  71 W7        29.90S
MARSHALL       SUNNY     53  45  74 CALM      29.89S
MONTEVIDEO     SUNNY     54  46  76 VRB6      29.89S
PIPESTONE      SUNNY     55  43  62 CALM      29.88S
REDWOOD FALLS  SUNNY     54  43  66 N5        29.88S
TRACY          SUNNY     54  46  76 NW6       29.89S
WINDOM         SUNNY     55  46  71 W6        29.90R
WORTHINGTON    SUNNY     54  47  77 W8        29.90R
$$

IAZ001>003-012>014-020>022-031-032-NEZ013-014-SDZ071-221500-
NORTHWEST IOWA

CITY           SKY/WX    TMP DP  RH WIND       PRES   REMARKS
CHEROKEE       SUNNY     58  51  77 W8        29.90F
DENISON        SUNNY     59  50  72 W5        29.94S
ESTHERVILLE    CLOUDY    54  49  83 NW10      29.88S
LE MARS        SUNNY     59  50  72 W12       29.91F
ORANGE CITY    SUNNY     55  52  88 W14       29.90S
SHELDON        PTSUNNY   55  48  76 W12         N/A
SIOUX CITY     SUNNY     60  50  69 W13       29.91F
SPENCER        PTSUNNY   57  49  74 NW9       29.89F
STORM LAKE     SUNNY     57  48  72 W15       29.90F
$$

ABBREVIATIONS USED IN REMARKS
   TC - TEMPERATURE IN CELSIUS
  WCI - WIND CHILL INDEX
   HX - HEAT INDEX
  VSB - VISIBILITY





USA.gov is the U.S. government's official web portal to all federal, state and local government web resources and services.